Regional Weather Roundup
Issued by NWS

Home | Current Version | Previous Version | Graphics & Text | Print | Product List | Glossary On
Versions: 1 2 3 4 5 6 7 8 9 10 11 12 13 14 15 16 17 18 19 20 21 22 23 24 25 26 27 28 29 30 31 32 33 34 35 36 37 38 39 40 41 42 43 44 45 46 47 48 49 50
079
ASUS45 KABQ 241910
RWRNM
NEW MEXICO REGIONAL WEATHER ROUNDUP
NATIONAL WEATHER SERVICE ALBUQUERQUE NM
100 PM MDT TUE APR 24 2018

NOTE: "FAIR" MEANS FEW OR NO CLOUDS BELOW 12,000 FEET AGL WITH NO
       SIGNIFICANT WEATHER OR OBSTRUCTIONS TO VISION.

      THIS PRODUCT IS RELEASED AS TWO VERSIONS.  ONE VERSION NEAR
      THE TOP OF THE HOUR CONTAINING PRELIMINARY DATA FROM ALBUQUERQUE
      AND OTHER STATIONS.  A FINAL VERSION WITH ADDITIONAL DATA IS
      ISSUED ABOUT 10 MINUTES AFTER THE HOUR.

NMZ501-503-504-510>518-242000-
NORTHWEST PLATEAU/NORTHCENTRAL MOUNTAINS

CITY           SKY/WX    TMP DP  RH WIND       PRES   REMARKS
FARMINGTON     FAIR      74  24  15 W9G21     30.10F
LOS ALAMOS     FAIR      69  16  13 S6        30.19F
SANTA FE       FAIR      74  16  11 VRB6G17   30.15F
TAOS           FAIR      73  17  12 SW23G33   30.18F
ANGEL FIRE     FAIR      64  17  16 W14G26    30.23F

$$
NMZ402-403-502-505>509-242000-
WESTCENTRAL MOUNTAINS/SOUTHWEST MOUNTAINS

CITY           SKY/WX    TMP DP  RH WIND       PRES   REMARKS
GALLUP         FAIR      74  17  11 NW13      30.18F

$$
NMZ407-409-411-412-242000-
SOUTHERN DESERTS

CITY           SKY/WX    TMP DP  RH WIND       PRES   REMARKS
DEMING         FAIR      85  21   9 W7        30.08F
LAS CRUCES     FAIR      87  19   8 NW7       30.10F
T OR C         FAIR      81  15   8 SW7       30.09F

$$
NMZ519>523-242000-
CENTRAL VALLEYS/CENTRAL HIGHLANDS

CITY           SKY/WX    TMP DP  RH WIND       PRES   REMARKS
ALBUQUERQUE    PTSUNNY   77  20  12 SW9       30.12F
DOUBLE EAGLE   PTSUNNY   75  19  12 SE7       30.15F
MORIARTY ARPT  FAIR      78  19  11 S7G18     30.16F
CLINES CORNERS FAIR      69  31  24 E15G22    30.23F
BELEN          NOT AVBL
SOCORRO        FAIR      82  17   9 E8        30.10F

$$
NMZ524>526-539-540-242000-
SOUTHCENTRAL MOUNTAINS

CITY           SKY/WX    TMP DP  RH WIND       PRES   REMARKS
RUIDOSO        NOT AVBL

$$
NMZ527>531-242000-
NORTHEAST HIGHLANDS/NORTHEAST PLAINS

CITY           SKY/WX    TMP DP  RH WIND       PRES   REMARKS
LAS VEGAS      FAIR      63  34  33 E17G23    30.23F
RATON          FAIR      54  35  48 N18G28    30.25R
CLAYTON        CLOUDY    50  37  61 N25       30.26S

$$
NMZ532>537-242000-
EASTCENTRAL PLAINS

CITY           SKY/WX    TMP DP  RH WIND       PRES   REMARKS
TUCUMCARI      FAIR      67  42  40 NE24G33   30.16F
CANNON AFB     NOT AVBL
CLOVIS AIRPORT FAIR      67  42  40 N23       30.16S

$$
NMZ028-029-538-242000-
SOUTHEAST PLAINS

CITY           SKY/WX    TMP DP  RH WIND       PRES   REMARKS
ROSWELL        FAIR      85  28  12 N18       30.02F
CARLSBAD       FAIR      92  33  12 MISG      29.98F
HOBBS          SUNNY     88  25  10 S6G16     30.02F


$$




USA.gov is the U.S. government's official web portal to all federal, state and local government web resources and services.